This is the latest recevied weather packets stored in our database for station/object KG5MMT-12. If no packets are shown the sender has not sent any weather packets the latest 1 day(s).
| Time | Temp. | Humidity | Pressure | Rain* | Wind** | Luminosity | Snow |
|---|---|---|---|---|---|---|---|
| 1836274593 | 12.78° C | 81% | 0 hPa | 0 mm | 0 m/s | - | - |
| 1836274446 | 12.78° C | 80% | 0 hPa | 0 mm | 0 m/s | - | - |
| 1836274292 | 12.78° C | 80% | 0 hPa | 0 mm | 0 m/s | - | - |
| 1836274142 | 12.78° C | 80% | 0 hPa | 0 mm | 0 m/s | - | - |
| 1836273996 | 12.78° C | 80% | 0 hPa | 0 mm | 0 m/s | - | - |
| 1778060328 | 6.67° C | 58% | 0 hPa | 0 mm | 0.89 m/s, 234° | - | - |
| 1778060028 | 6.67° C | 57% | 0 hPa | 0 mm | 0.45 m/s, 210° | - | - |
| 1778059728 | 6.67° C | 56% | 0 hPa | 0 mm | 1.34 m/s, 272° | - | - |
| 1778059428 | 6.67° C | 54% | 0 hPa | 0 mm | 1.34 m/s, 279° | - | - |
| 1778059128 | 7.22° C | 55% | 0 hPa | 0 mm | 0.89 m/s, 240° | - | - |
| 1778058828 | 7.22° C | 54% | 0 hPa | 0 mm | 1.34 m/s, 248° | - | - |
| 1778058528 | 7.22° C | 54% | 0 hPa | 0 mm | 0.45 m/s, 243° | - | - |
| 1778058228 | 7.22° C | 54% | 0 hPa | 0 mm | 0.45 m/s, 11° | - | - |
| 1778057928 | 7.22° C | 53% | 0 hPa | 0 mm | 2.24 m/s, 274° | - | - |
| 1778057628 | 7.22° C | 53% | 0 hPa | 0 mm | 0.89 m/s, 267° | - | - |
| 1778057328 | 7.22° C | 53% | 0 hPa | 0 mm | 0 m/s | - | - |
| 1778057028 | 7.22° C | 52% | 0 hPa | 0 mm | 0.45 m/s, 341° | - | - |
| 1778056728 | 7.22° C | 54% | 0 hPa | 0 mm | 3.58 m/s, 230° | - | - |
| 1778056428 | 7.78° C | 54% | 0 hPa | 0 mm | 1.34 m/s, 336° | - | - |
| 1778056128 | 7.22° C | 54% | 0 hPa | 0 mm | 3.13 m/s, 267° | - | - |
| 1778055828 | 7.78° C | 54% | 0 hPa | 0 mm | 0 m/s | - | - |
| 1778055528 | 7.78° C | 53% | 0 hPa | 0 mm | 0 m/s | - | - |
| 1778055228 | 7.78° C | 53% | 0 hPa | 0 mm | 4.92 m/s, 227° | - | - |
| 1778054928 | 7.78° C | 53% | 0 hPa | 0 mm | 0 m/s | - | - |
| 1778054628 | 7.78° C | 53% | 0 hPa | 0 mm | 1.79 m/s, 240° | - | - |
* Rain latest hour (hover to see other rain measurements)
** Current wind speed in m/s (hover to see current wind gust speed)